Flag for Germany Weather past 2 weeks in Münster, North Rhine-Westphalia, Germany

Now
45 °F

Broken clouds.


Feels Like: 40 °F
Forecast: 37 / 47 °F
Wind: 8 mph from West

Location: Muenster / Osnabrueck

Current Time: Mar 5, 2015 at 1:09:58 PM

Latest Report: Mar 5, 2015 at 12:20 PM


Visibility: N/A

Pressure: 30.60 "Hg

Humidity: 81%

Dew point: 39 °F

Location of MünsterLocation

Historic Weather in Münster — Graph

°F

Münster temperature yesterday

Maximum temperature yesterday: 43 °F (at 12:50 PM)
Minimum temperature yesterday: 34 °F (at 12:20 AM)
Average temperature yesterday: 39 °F

Past Weeks' High & Low Weather Summary

 TemperatureHumidityPressure
High50 °F (Mar 1, 12:20 PM)100% (Feb 18, 11:20 AM)30.72 "Hg (Feb 18, 11:20 AM)
Low27 °F (Feb 22, 3:50 AM)46% (Feb 28, 2:20 PM)29.30 "Hg (Feb 21, 6:20 AM)
Average40 °F84%29.88 "Hg
* Reported Feb 18 11:20 AM — Mar 5 11:50 AM, Münster, Weather by CustomWeather, © 2015

Note: Actual official high and low records may vary slightly from our data, if they occured in-between our weather recording intervals... More about our weather records

Advertising

Münster weather history for previous 24 hours

 ConditionsComfort  
Time TempWeatherWind HumidityBarometerVisibility
11:50 AM
Thu, Mar 5
41 °FBroken clouds.7 mph93%30.60 "HgN/A
11:20 AM41 °FPartly sunny.9 mph93%30.60 "HgN/A
10:50 AM41 °FPartly sunny.8 mph93%30.63 "Hg5 mi
10:20 AM39 °FPartly sunny.9 mph93%30.60 "Hg5 mi
9:50 AM39 °FPartly sunny.7 mph93%30.60 "Hg5 mi
9:20 AM39 °FPartly sunny.8 mph93%30.60 "Hg4 mi
8:50 AM39 °FFog.8 mph100%30.60 "Hg3 mi
8:20 AM39 °FFog.7 mph100%30.60 "Hg3 mi
7:50 AM37 °FFog.6 mph100%30.60 "Hg3 mi
7:20 AM37 °FFog.6 mph100%30.57 "Hg3 mi
6:50 AM37 °FPassing clouds.6 mph100%30.57 "Hg5 mi
6:20 AM37 °FPassing clouds.8 mph93%30.57 "HgN/A
5:50 AM36 °FPassing clouds.6 mph100%30.57 "HgN/A
5:20 AM36 °FPassing clouds.7 mph100%30.54 "HgN/A
4:20 AM36 °FPassing clouds.7 mph93%30.54 "HgN/A
3:50 AM36 °FPassing clouds.6 mph93%30.51 "HgN/A
2:50 AM37 °FPassing clouds.7 mph87%30.51 "HgN/A
2:20 AM39 °FPassing clouds.8 mph87%30.48 "HgN/A
1:50 AM39 °FPassing clouds.6 mph81%30.48 "HgN/A
1:20 AM39 °FPassing clouds.7 mph81%30.48 "HgN/A
12:50 AM39 °FPassing clouds.9 mph87%30.45 "HgN/A
12:20 AM39 °FPassing clouds.9 mph87%30.45 "HgN/A
11:50 PM
Wed, Mar 4
39 °FPassing clouds.10 mph87%30.42 "HgN/A
11:20 PM41 °FSprinkles. Partly cloudy.9 mph81%30.39 "HgN/A
10:20 PM41 °FSprinkles. Passing clouds.16 mph81%30.36 "HgN/A
9:50 PM41 °FPassing clouds.13 mph87%30.33 "HgN/A
9:20 PM41 °FSprinkles. Passing clouds.12 mph87%30.30 "HgN/A
8:50 PM41 °FPassing clouds.12 mph87%30.30 "HgN/A
8:20 PM39 °FPartly cloudy.12 mph93%30.30 "HgN/A
7:50 PM39 °FPartly cloudy.14 mph93%30.27 "HgN/A
7:20 PM39 °FPartly cloudy.15 mph93%30.27 "HgN/A
6:50 PM39 °FSprinkles. Partly cloudy.15 mph87%30.27 "HgN/A
6:20 PM39 °FPartly cloudy.17 mph87%30.24 "HgN/A
5:50 PM39 °FScattered clouds.17 mph87%30.24 "HgN/A
5:20 PM39 °FSprinkles. Scattered clouds.24 mph87%30.24 "HgN/A
4:50 PM43 °FScattered clouds.21 mph76%30.21 "HgN/A
4:20 PM43 °FScattered clouds.17 mph76%30.21 "HgN/A
3:50 PM43 °FScattered clouds.13 mph81%30.21 "HgN/A
3:20 PM39 °FBroken clouds.12 mph87%30.18 "HgN/A
2:50 PM43 °FScattered showers. Broken clouds.16 mph71%30.18 "HgN/A
2:20 PM43 °FBroken clouds.20 mph71%30.18 "HgN/A
1:50 PM43 °FBroken clouds.21 mph71%30.18 "HgN/A
1:20 PM43 °FBroken clouds.20 mph76%30.18 "HgN/A
Weather by CustomWeather, © 2015

See weather overviewHow to use our weather pages